TimeCST,TemperatureF,Dew PointF,Humidity,Sea Level PressureIn,VisibilityMPH,Wind Direction,Wind SpeedMPH,Gust SpeedMPH,PrecipitationIn,Events,Conditions,WindDirDegrees,DateUTC
12:15 AM,38.3,27.0,64,29.97,10.0,SSE,13.8,-,N/A,,Overcast,150,2013-01-27 06:15:00
12:35 AM,38.3,27.0,64,29.96,10.0,SE,13.8,-,N/A,,Overcast,140,2013-01-27 06:35:00
12:55 AM,38.3,27.0,64,29.95,10.0,SSE,12.7,18.4,N/A,,Overcast,150,2013-01-27 06:55:00
1:15 AM,38.3,26.8,63,29.95,10.0,SSE,12.7,-,N/A,,Overcast,150,2013-01-27 07:15:00
1:35 AM,38.3,27.0,64,29.94,10.0,SSE,12.7,-,N/A,,Overcast,150,2013-01-27 07:35:00
1:55 AM,38.3,27.1,64,29.95,10.0,SSE,11.5,-,N/A,,Overcast,150,2013-01-27 07:55:00
2:15 AM,38.3,27.5,65,29.95,10.0,SSE,11.5,-,N/A,,Overcast,150,2013-01-27 08:15:00
2:35 AM,38.3,27.9,66,29.95,10.0,SSE,13.8,19.6,N/A,,Overcast,150,2013-01-27 08:35:00
2:55 AM,38.3,29.3,70,29.93,10.0,SSE,12.7,18.4,N/A,,Overcast,150,2013-01-27 08:55:00
3:15 AM,37.4,31.5,79,29.93,10.0,SSE,15.0,-,N/A,,Drizzle,160,2013-01-27 09:15:00
3:35 AM,36.5,32.5,86,29.92,7.0,SSE,15.0,-,N/A,Rain,Rain,150,2013-01-27 09:35:00
3:55 AM,35.8,33.1,90,29.91,5.0,SE,12.7,17.3,N/A,Rain,Light Rain,140,2013-01-27 09:55:00
4:15 AM,35.6,33.4,92,29.89,4.0,SE,10.4,-,0.02,Rain,Light Rain,140,2013-01-27 10:15:00
4:35 AM,35.6,33.8,93,29.89,4.0,SE,10.4,-,0.03,Rain,Light Rain,140,2013-01-27 10:35:00
4:55 AM,35.6,34.0,94,29.86,3.0,SE,10.4,-,0.04,Rain,Light Rain,130,2013-01-27 10:55:00
5:15 AM,36.0,34.5,94,29.86,4.0,SE,12.7,-,N/A,Rain,Rain,130,2013-01-27 11:15:00
5:35 AM,36.0,34.7,95,29.85,4.0,SE,11.5,-,N/A,,Overcast,130,2013-01-27 11:35:00
6:15 AM,36.1,34.7,94,29.86,5.0,SE,9.2,-,N/A,,Overcast,140,2013-01-27 12:15:00
6:35 AM,35.8,34.3,94,29.84,4.0,SE,10.4,-,N/A,,Overcast,130,2013-01-27 12:35:00
6:55 AM,35.6,34.2,94,29.83,4.0,SE,10.4,-,N/A,,Overcast,130,2013-01-27 12:55:00
7:15 AM,35.6,34.0,94,29.83,4.0,SE,9.2,-,N/A,,Overcast,130,2013-01-27 13:15:00
7:35 AM,35.6,34.0,94,29.83,4.0,SE,9.2,-,N/A,,Overcast,130,2013-01-27 13:35:00
7:55 AM,35.6,34.0,94,29.83,4.0,SE,9.2,-,N/A,,Overcast,140,2013-01-27 13:55:00
8:15 AM,35.8,34.3,94,29.82,5.0,SSE,8.1,-,N/A,,Overcast,150,2013-01-27 14:15:00
8:35 AM,36.9,35.1,93,29.81,7.0,SE,10.4,-,N/A,,Overcast,130,2013-01-27 14:35:00
8:55 AM,37.0,35.1,93,29.81,7.0,SE,9.2,-,N/A,,Overcast,130,2013-01-27 14:55:00
9:15 AM,37.4,35.6,93,29.81,3.0,SSE,8.1,-,N/A,,Overcast,150,2013-01-27 15:15:00
9:35 AM,37.4,35.6,93,29.79,1.2,SE,9.2,-,N/A,,Overcast,140,2013-01-27 15:35:00
9:55 AM,37.4,36.0,95,29.79,1.5,SSE,8.1,-,N/A,,Overcast,150,2013-01-27 15:55:00
10:15 AM,37.8,36.5,95,29.78,1.2,SSE,6.9,-,N/A,,Overcast,150,2013-01-27 16:15:00
10:35 AM,38.8,37.6,95,29.78,1.8,SSE,11.5,17.3,N/A,,Overcast,150,2013-01-27 16:35:00
10:55 AM,39.2,37.8,95,29.78,2.0,SSE,11.5,-,N/A,,Overcast,160,2013-01-27 16:55:00
11:15 AM,39.2,37.6,94,29.78,2.0,SSE,10.4,-,N/A,,Overcast,160,2013-01-27 17:15:00
11:35 AM,39.2,37.8,95,29.77,1.8,SSE,8.1,-,N/A,,Overcast,160,2013-01-27 17:35:00
11:55 AM,39.4,38.1,95,29.76,2.0,South,8.1,-,N/A,,Overcast,170,2013-01-27 17:55:00
12:15 PM,39.6,38.3,95,29.74,1.8,SSE,6.9,-,N/A,,Overcast,150,2013-01-27 18:15:00
12:35 PM,39.7,38.5,95,29.73,1.8,SSE,9.2,-,N/A,,Overcast,150,2013-01-27 18:35:00
12:55 PM,40.1,38.8,95,29.72,1.5,SSE,8.1,-,N/A,,Light Drizzle,150,2013-01-27 18:55:00
1:15 PM,40.3,39.2,96,29.71,1.5,SSE,6.9,-,N/A,Rain,Rain,150,2013-01-27 19:15:00
1:35 PM,40.3,39.2,96,29.70,1.0,SE,5.8,-,N/A,Rain,Light Rain,140,2013-01-27 19:35:00
1:55 PM,40.6,39.6,96,29.69,1.0,SE,4.6,-,N/A,,Overcast,140,2013-01-27 19:55:00
2:15 PM,41.0,40.1,97,29.68,1.2,SE,5.8,-,N/A,,Overcast,140,2013-01-27 20:15:00
2:35 PM,41.2,40.1,96,29.68,1.0,SE,4.6,-,N/A,Rain,Light Rain,140,2013-01-27 20:35:00
2:55 PM,41.4,40.3,96,29.68,1.0,ESE,3.5,-,N/A,Rain,Light Rain,120,2013-01-27 20:55:00
3:15 PM,40.5,39.4,96,29.68,0.2,NNE,3.5,-,N/A,Fog,Fog,20,2013-01-27 21:15:00
3:35 PM,40.3,39.2,96,29.69,0.2,Calm,Calm,-,N/A,Fog,Fog,0,2013-01-27 21:35:00
3:55 PM,40.1,39.2,97,29.69,0.2,North,3.5,-,N/A,Fog,Fog,10,2013-01-27 21:55:00
4:15 PM,39.7,38.7,96,29.69,0.2,NNW,4.6,-,N/A,Fog,Fog,340,2013-01-27 22:15:00
4:35 PM,39.9,38.8,96,29.69,0.2,North,5.8,-,N/A,Fog,Fog,350,2013-01-27 22:35:00
4:55 PM,39.2,38.3,97,29.70,0.2,North,4.6,-,N/A,Fog,Fog,350,2013-01-27 22:55:00
5:15 PM,39.0,37.9,96,29.70,0.2,North,5.8,-,N/A,Fog,Fog,350,2013-01-27 23:15:00
5:35 PM,38.5,37.4,96,29.71,0.2,North,3.5,-,N/A,Fog,Fog,350,2013-01-27 23:35:00
5:55 PM,38.7,37.6,96,29.71,0.5,NNW,4.6,-,N/A,Fog,Fog,330,2013-01-27 23:55:00
6:15 PM,38.7,37.6,96,29.72,1.8,NNW,4.6,-,N/A,,Overcast,340,2013-01-28 00:15:00
6:35 PM,38.5,37.4,96,29.73,1.8,NNW,3.5,-,N/A,,Overcast,330,2013-01-28 00:35:00
6:55 PM,37.9,37.0,97,29.73,1.0,NW,4.6,-,N/A,,Overcast,320,2013-01-28 00:55:00
7:15 PM,37.8,36.9,97,29.74,0.8,NNW,4.6,-,N/A,,Overcast,330,2013-01-28 01:15:00
7:35 PM,37.6,36.5,96,29.75,0.5,NW,3.5,-,N/A,Fog,Fog,310,2013-01-28 01:35:00
7:55 PM,37.9,37.0,97,29.76,1.0,WNW,5.8,-,N/A,,Overcast,300,2013-01-28 01:55:00
8:15 PM,37.4,36.5,97,29.76,1.2,WNW,4.6,-,N/A,,Overcast,300,2013-01-28 02:15:00
8:35 PM,37.6,36.7,97,29.77,2.0,NW,4.6,-,N/A,,Overcast,310,2013-01-28 02:35:00
8:55 PM,38.3,37.4,97,29.78,2.0,WNW,4.6,-,N/A,,Overcast,290,2013-01-28 02:55:00
9:15 PM,38.1,37.2,97,29.79,0.8,West,4.6,-,N/A,,Overcast,280,2013-01-28 03:15:00
9:35 PM,37.8,36.9,97,29.79,0.8,West,3.5,-,N/A,,Overcast,270,2013-01-28 03:35:00
9:55 PM,37.9,37.0,97,29.78,0.5,Calm,Calm,-,N/A,Fog,Fog,0,2013-01-28 03:55:00
10:15 PM,38.3,37.4,97,29.78,2.5,WNW,4.6,-,N/A,,Overcast,300,2013-01-28 04:15:00
10:35 PM,38.3,37.4,97,29.79,2.5,West,3.5,-,N/A,,Overcast,270,2013-01-28 04:35:00
10:55 PM,38.5,37.6,97,29.79,3.0,West,3.5,-,N/A,,Overcast,270,2013-01-28 04:55:00
11:15 PM,38.5,37.6,97,29.80,2.5,WNW,3.5,-,N/A,,Overcast,290,2013-01-28 05:15:00
11:35 PM,38.5,37.6,97,29.80,2.0,Calm,Calm,-,N/A,,Overcast,0,2013-01-28 05:35:00
11:55 PM,38.5,37.6,97,29.81,2.0,Calm,Calm,-,N/A,,Overcast,0,2013-01-28 05:55:00